Location: Burgberg
(50.1428°N, 11.0671°E)
Time: 10:28:22
(UTC+00:00)

Timation 1 Rocket - Pass Details

Date: 26 January 2020
Orbit: 896 x 911 km, 70.0° (Epoch: 17 February)

Event Time Altitude Azimuth Distance (km) Brightness Sun altitude
Exits shadow 04:08:50 75° 279° (W) 946 4.2 -27.0°
Maximum altitude 04:09:10 78° 243° (WSW) 936 4.2 -26.9°
Drops below altitude 10° 04:15:10 10° 157° (SSE) 2,592 7.0 -26.0°
Sets 04:17:40 0° 156° (SSE) 3,529 7.7 -25.6°
